Regional Weather Roundup
Issued by NWS

Home | Current Version | Previous Version | Graphics & Text | Print | Product List | Glossary On
Versions: 1 2 3 4 5 6 7 8 9 10 11 12 13 14 15 16 17 18 19 20 21 22 23 24 25 26 27 28 29 30 31 32 33 34 35 36 37 38 39 40 41 42 43 44 45 46 47 48 49 50
000
ASUS43 KOAX 271210
RWRNE

WEATHER ROUNDUP FOR NEBRASKA
NATIONAL WEATHER SERVICE OMAHA NE
700 AM CDT THU JUL 27 2017

NOTES: SATELLITE DATA IS BEING USED TO AUGMENT CLOUD COVER ABOVE
       12000 FEET.
       "FAIR" INDICATES FEW OR NO CLOUDS BELOW 12,000 FEET WITH NO
       SIGNIFICANT WEATHER AND/OR OBSTRUCTIONS TO VISIBILITY.


NEZ001>004-019>022-054>056-271300-
NEBRASKA PANHANDLE

CITY           SKY/WX    TMP DP  RH WIND       PRES   REMARKS
SCOTTSBLUFF    CLOUDY    67  64  90 E9        30.19S
6HR MIN TEMP:  67; 6HR MAX TEMP:  69; 6HR PCP:  0.19;

ALLIANCE       CLOUDY    67  63  87 SE12      30.20S
6HR MIN TEMP:  67; 6HR MAX TEMP:  70;

CHADRON        CLOUDY    71  64  78 S8        30.16R
6HR MIN TEMP:  71; 6HR MAX TEMP:  75; 6HR PCP: TRACE;

GORDON         CLOUDY    67  60  77 SE6       30.20R
6HR MIN TEMP:  65; 6HR MAX TEMP:  68;

KIMBALL        MOCLDY    63  63 100 S5        30.24R FOG
SIDNEY         CLOUDY    65  63  93 E6        30.23R
6HR MIN TEMP:  58; 6HR MAX TEMP:  66;

$$

NEZ057>060-069>072-079>082-271300-
SOUTHWEST NEBRASKA

CITY           SKY/WX    TMP DP  RH WIND       PRES   REMARKS
NORTH PLATTE   CLOUDY    67  61  81 NE6       30.17R
6HR MIN TEMP:  67; 6HR MAX TEMP:  70;

IMPERIAL       CLOUDY    69  65  86 E8        30.18R
6HR MIN TEMP:  67; 6HR MAX TEMP:  69;

LEXINGTON      CLOUDY    67  62  81 NE7       30.14R
MCCOOK         CLOUDY    70  68  93 NE8       30.14R
6HR MIN TEMP:  70; 6HR MAX TEMP:  71;

OGALLALA       MOCLDY    68  64  85 E6        30.20R
$$

NEZ005>010-023>029-035>040-094-271300-
NORTH CENTRAL NEBRASKA

CITY           SKY/WX    TMP DP  RH WIND       PRES   REMARKS
VALENTINE      CLOUDY    64  57  78 CALM      30.17S
6HR MIN TEMP:  60; 6HR MAX TEMP:  70;

AINSWORTH      CLEAR     59  58  94 CALM      30.17S
BROKEN BOW     CLEAR     60  58  92 N3        30.15S
6HR MIN TEMP:  60; 6HR MAX TEMP:  70;

O`NEILL        CLEAR     59  59 100 N3        30.16R
ORD            CLEAR     60  57  89 N5        30.13S
6HR MIN TEMP:  60; 6HR MAX TEMP:  68;

THEDFORD       CLEAR     61  59  94 CALM      30.19S
$$

NEZ041-046>049-061>064-073>077-083>087-271300-
SOUTH CENTRAL NEBRASKA

CITY           SKY/WX    TMP DP  RH WIND       PRES   REMARKS
GRAND ISLAND   CLEAR     64  63  96 N9        30.11S
6HR MIN TEMP:  64; 6HR MAX TEMP:  71;

AURORA         CLEAR     64  64  99 N8        30.10R
HASTINGS       PTCLDY    67  63  87 NE8       30.11R
6HR MIN TEMP:  66; 6HR MAX TEMP:  72;

HEBRON         CLOUDY    73  71  93 NE7       30.05S
HOLDREGE       CLOUDY    66  63  88 NE8       30.13R
KEARNEY        CLEAR     65  62  90 NE9       30.12S
YORK           CLEAR     64  64 100 NE7       30.09S
$$

NEZ011>018-030>034-042>045-271300-
NORTHEAST NEBRASKA

CITY           SKY/WX    TMP DP  RH WIND       PRES   REMARKS
NORFOLK        CLEAR     62  60  93 W5        30.12R
6HR MIN TEMP:  60; 6HR MAX TEMP:  71;

ALBION         CLEAR     61  60  97 N3        30.12S
BLAIR          RAIN      66  64  95 N7        30.06S
COLUMBUS       CLEAR     64  62  93 N5        30.10R
FREMONT        CLEAR     65  63  92 N5        30.07S
TEKAMAH        CLEAR     64  61  90 N7        30.06S
6HR MIN TEMP:  63; 6HR MAX TEMP:  73;

WAYNE          CLEAR     61  60  99 CALM      30.11R
$$

NEZ050>053-065>068-078-088>093-271300-
SOUTHEAST NEBRASKA

CITY           SKY/WX    TMP DP  RH WIND       PRES   REMARKS
LINCOLN        CLEAR     68  65  90 N8        30.06R
6HR MIN TEMP:  68; 6HR MAX TEMP:  73;

OMAHA EPPLEY   PTCLDY    67  64  90 N7        30.05R
6HR MIN TEMP:  67; 6HR MAX TEMP:  72;

BEATRICE       CLOUDY    72  71  96 NE5       30.04S FOG
FALLS CITY     PTCLDY    71  70  96 N7        29.99S
6HR MIN TEMP:  71; 6HR MAX TEMP:  75;

NEBRASKA CITY  CLEAR     70  70 100 NE5       30.03R FOG
PLATTSMOUTH    CLEAR     68  65  90 N6        30.04S
$$

NEZ044-045-051>053-067-271300-
OMAHA AREA

CITY           SKY/WX    TMP DP  RH WIND       PRES   REMARKS
OMAHA EPPLEY   PTCLDY    67  64  90 N7        30.05R
6HR MIN TEMP:  67; 6HR MAX TEMP:  72;

BLAIR          RAIN      66  64  95 N7        30.06S
FREMONT        CLEAR     65  63  92 N5        30.07S
MILLARD        CLEAR     70  67  89 N3        30.05R
OFFUTT AFB     CLEAR     69  64  84 N9        30.03S
PLATTSMOUTH    CLEAR     68  65  90 N6        30.04S
WAHOO          FAIR      65  64  97 N5        30.07R
$$




USA.gov is the U.S. government's official web portal to all federal, state and local government web resources and services.